Burley, ID

11:01 PM MST on January 23, 2018 (GMT -0700)
Burley Municipal

Weather History for KBYI - March, 2014

Change the Weather History Date:

Monday, March 24, 2014

  Actual Average Record
Temperature  
Mean Temperature 44 °F 41 °F  
Max Temperature 62 °F 53 °F 75 °F (1956)
Min Temperature 25 °F 30 °F 8 °F (1965)
Degree Days  
Heating Degree Days 21 24  
Month to date heating degree days 546 637  
Since 1 July heating degree days 5241 5659  
Cooling Degree Days 0 0  
Month to date cooling degree days 0 0  
Year to date cooling degree days 0 0  
Moisture  
Dew Point 17 °F    
Average Humidity 43    
Maximum Humidity 68    
Minimum Humidity 17    
Precipitation  
Precipitation 0.00 in 0.03 in 0.28 in (1950)
Month to date precipitation 0.90 0.80  
Year to date precipitation 2.74 2.48  
Sea Level Pressure  
Sea Level Pressure 30.18 in    
Wind  
Wind Speed 6 mph (WSW)    
Max Wind Speed 15 mph    
Max Gust Speed 21 mph    
Visibility 10 miles    
Events Rain    
T = Trace of Precipitation, MM = Missing Value Source: NWS Daily Summary

Daily Weather History Graph

Daily Weather History Graph

Search for Another Location

Airport or City:

Trip Planner

Search our weather history database for the weather conditions in past years. The results will help you decide how hot, cold, wet, or windy it might be!

Date:

Astronomy

Mar. 24, 2014 Rise Set
Actual Time 7:31 AM MDT 7:52 PM MDT
Civil Twilight 7:03 AM MDT 8:20 PM MDT
Nautical Twilight 6:29 AM MDT 8:53 PM MDT
Astronomical Twilight 5:56 AM MDT 9:27 PM MDT
Moon 3:11 AM MDT 1:14 PM MDT
Length of Visible Light 13h 17m
Length of Day
12h 20m
Last Quarter, 42% of the Moon is Illuminated
Mar 24
Last Quarter
Mar 30
New
Apr 7
First Quarter
Apr 15
Full
Apr 22
Last Quarter

Hourly Weather History & Observations

Time (MDT) Temp. Windchill Dew Point Humidity Pressure Visibility Wind Dir Wind Speed Gust Speed Precip Events Conditions
12:53 AM 39.0 °F 32.8 °F 12.9 °F 34% 30.15 in 10.0 mi WSW 9.2 mph - N/A   Clear
1:53 AM 34.0 °F 26.6 °F 14.0 °F 44% 30.17 in 10.0 mi SW 9.2 mph - N/A   Clear
2:53 AM 33.1 °F - 14.0 °F 46% 30.18 in 10.0 mi Calm Calm - N/A   Clear
3:53 AM 28.9 °F 25.2 °F 15.1 °F 56% 30.19 in 10.0 mi WNW 3.5 mph - N/A   Clear
4:53 AM 28.9 °F 21.9 °F 15.1 °F 56% 30.19 in 10.0 mi SSW 6.9 mph - N/A   Clear
5:53 AM 30.0 °F 25.2 °F 15.1 °F 54% 30.21 in 10.0 mi SSW 4.6 mph - N/A   Clear
6:53 AM 28.0 °F 24.2 °F 15.1 °F 58% 30.24 in 10.0 mi North 3.5 mph - N/A   Clear
7:53 AM 27.0 °F - 18.0 °F 69% 30.26 in 10.0 mi Calm Calm - N/A   Clear
8:53 AM 33.1 °F 30.0 °F 18.0 °F 54% 30.27 in 10.0 mi WSW 3.5 mph - N/A   Clear
9:53 AM 39.0 °F 36.8 °F 21.0 °F 49% 30.26 in 10.0 mi South 3.5 mph - N/A   Clear
10:53 AM 46.9 °F - 19.9 °F 34% 30.26 in 10.0 mi WSW 6.9 mph - N/A   Clear
11:53 AM 51.1 °F - 19.9 °F 29% 30.26 in 10.0 mi WNW 5.8 mph - N/A   Clear
12:53 PM 55.0 °F - 19.0 °F 24% 30.22 in 10.0 mi West 11.5 mph 18.4 mph 0.00 in Rain Light Rain
1:53 PM 57.0 °F - 16.0 °F 20% 30.21 in 10.0 mi WNW 11.5 mph - 0.00 in Rain Light Rain
2:53 PM 59.0 °F - 18.0 °F 20% 30.18 in 10.0 mi WSW 11.5 mph - 0.00 in   Clear
3:53 PM 60.1 °F - 17.1 °F 19% 30.17 in 10.0 mi WNW 8.1 mph 17.3 mph 0.00 in   Clear
4:53 PM 61.0 °F - 17.1 °F 18% 30.15 in 10.0 mi West 10.4 mph 17.3 mph 0.00 in Rain Light Rain
5:53 PM 60.1 °F - 14.0 °F 16% 30.13 in 10.0 mi WNW 6.9 mph - 0.00 in   Clear
6:53 PM 57.9 °F - 14.0 °F 18% 30.13 in 10.0 mi WNW 4.6 mph - N/A   Clear
7:53 PM 48.9 °F - 17.1 °F 28% 30.14 in 10.0 mi Calm Calm - N/A   Clear
8:53 PM 44.1 °F - 21.9 °F 42% 30.13 in 10.0 mi Calm Calm - N/A   Clear
9:53 PM 41.0 °F - 23.0 °F 49% 30.12 in 10.0 mi Calm Calm - N/A   Clear
10:53 PM 37.0 °F 31.0 °F 19.0 °F 48% 30.11 in 10.0 mi South 8.1 mph - N/A   Clear
11:53 PM 35.1 °F 32.2 °F 19.0 °F 52% 30.09 in 10.0 mi SSE 3.5 mph - N/A   Clear